AAY113 KLAS-KCID

Flight info

Callsign AAY113
Flight time 2h 35m
Altitude 35000
Route GIDGT3 TUKRR DVC J197 GLD J146 IOW
Aircraft A320/M-SDE3FGHIRWY/LB1

Departure

Time 2026-04-15 14:56
Airport Harry Reid International Airport (KLAS)

Arrival

Time 2026-04-15 17:32
Airport The Eastern Iowa Airport (KCID)
Time Latitude Longitude Altitude Speed Heading
2026-04-15 14:44 36.08229 -115.15321 2188 ft 0 kts 25°
2026-04-15 14:48 36.08225 -115.15323 2188 ft 2 kts 25°
2026-04-15 14:48 36.08210 -115.15332 2190 ft 2 kts 25°
2026-04-15 14:48 36.08194 -115.15341 2191 ft 2 kts 25°
2026-04-15 14:49 36.08178 -115.15350 2191 ft 2 kts 25°
2026-04-15 14:49 36.08162 -115.15358 2189 ft 3 kts 360°
2026-04-15 14:49 36.08144 -115.15354 2188 ft 3 kts 323°
2026-04-15 14:49 36.08132 -115.15338 2188 ft 3 kts 287°
2026-04-15 14:50 36.08130 -115.15327 2189 ft 0 kts 269°
2026-04-15 14:51 36.08129 -115.15354 2188 ft 13 kts 268°
2026-04-15 14:52 36.08170 -115.15501 2188 ft 20 kts 323°
2026-04-15 14:52 36.08296 -115.15576 2190 ft 20 kts 335°
2026-04-15 14:52 36.08426 -115.15652 2188 ft 21 kts 335°
2026-04-15 14:52 36.08561 -115.15730 2193 ft 22 kts 335°
2026-04-15 14:53 36.08703 -115.15787 2189 ft 22 kts
2026-04-15 14:53 36.08865 -115.15703 2190 ft 29 kts 25°
2026-04-15 14:53 36.09045 -115.15599 2189 ft 29 kts 25°
2026-04-15 14:53 36.09225 -115.15497 2189 ft 28 kts 25°
2026-04-15 14:54 36.09403 -115.15394 2188 ft 28 kts 25°
2026-04-15 14:54 36.09581 -115.15291 2189 ft 28 kts 25°
2026-04-15 14:54 36.09730 -115.15208 2190 ft 20 kts 17°
2026-04-15 14:54 36.09792 -115.15235 2190 ft 4 kts 309°
2026-04-15 14:55 36.09804 -115.15264 2188 ft 6 kts 296°
2026-04-15 14:55 36.09819 -115.15371 2189 ft 14 kts 231°
2026-04-15 14:55 36.09721 -115.15435 2190 ft 27 kts 205°
2026-04-15 14:55 36.09295 -115.15679 2190 ft 106 kts 205°
2026-04-15 14:56 36.08418 -115.16184 2199 ft 168 kts 205°
2026-04-15 14:56 36.07285 -115.16839 2679 ft 188 kts 205°
2026-04-15 14:56 36.06278 -115.17845 3531 ft 189 kts 241°
2026-04-15 14:56 36.06063 -115.19451 3953 ft 202 kts 277°
2026-04-15 14:57 36.06330 -115.21241 4205 ft 220 kts 281°
2026-04-15 14:57 36.06670 -115.23112 4715 ft 226 kts 282°
2026-04-15 14:57 36.07023 -115.25005 5405 ft 227 kts 282°
2026-04-15 14:57 36.07511 -115.26870 6048 ft 232 kts 300°
2026-04-15 14:58 36.08647 -115.28300 6614 ft 241 kts 329°
2026-04-15 14:58 36.10290 -115.28979 6962 ft 257 kts 347°
2026-04-15 14:58 36.12066 -115.29446 7567 ft 263 kts 351°
2026-04-15 14:58 36.13895 -115.29390 8294 ft 266 kts 14°
2026-04-15 14:59 36.15596 -115.28474 8964 ft 274 kts 35°
2026-04-15 14:59 36.16938 -115.26723 9374 ft 288 kts 60°
2026-04-15 14:59 36.17780 -115.24458 10055 ft 292 kts 70°
2026-04-15 14:59 36.18525 -115.22041 10380 ft 312 kts 69°
2026-04-15 15:00 36.19220 -115.19397 10545 ft 334 kts 77°
2026-04-15 15:00 36.19590 -115.16466 10689 ft 356 kts 87°
2026-04-15 15:00 36.19618 -115.13318 10919 ft 373 kts 90°
2026-04-15 15:00 36.19611 -115.10072 11411 ft 379 kts 90°
2026-04-15 15:01 36.19609 -115.06790 12006 ft 384 kts 90°
2026-04-15 15:01 36.19610 -115.03460 12586 ft 389 kts 90°
2026-04-15 15:01 36.19613 -115.00088 13182 ft 394 kts 89°
2026-04-15 15:01 36.19617 -114.97838 13570 ft 397 kts 89°
2026-04-15 15:02 36.19623 -114.94405 14106 ft 401 kts 89°
2026-04-15 15:02 36.19627 -114.90934 14639 ft 404 kts 89°
2026-04-15 15:02 36.19626 -114.87443 15170 ft 407 kts 89°
2026-04-15 15:02 36.19620 -114.83925 15699 ft 410 kts 89°
2026-04-15 15:03 36.19609 -114.80390 16219 ft 412 kts 89°
2026-04-15 15:03 36.19599 -114.76827 16737 ft 415 kts 89°
2026-04-15 15:03 36.19590 -114.73243 17244 ft 418 kts 89°
2026-04-15 15:03 36.19581 -114.69637 17744 ft 420 kts 89°
2026-04-15 15:04 36.19569 -114.66004 18249 ft 423 kts 89°
2026-04-15 15:04 36.19559 -114.62303 18683 ft 426 kts 89°
2026-04-15 15:04 36.19550 -114.58623 19067 ft 429 kts 89°
2026-04-15 15:04 36.19540 -114.54965 19447 ft 432 kts 89°
2026-04-15 15:05 36.19530 -114.51183 19837 ft 435 kts 89°
2026-04-15 15:05 36.19521 -114.47426 20213 ft 438 kts 89°
2026-04-15 15:05 36.19510 -114.43640 20600 ft 441 kts 89°
2026-04-15 15:05 36.19497 -114.39825 20979 ft 444 kts 89°
2026-04-15 15:06 36.19466 -114.32168 21701 ft 451 kts 89°
2026-04-15 15:06 36.19448 -114.28274 22054 ft 454 kts 89°
2026-04-15 15:06 36.19471 -114.24355 22398 ft 456 kts 85°
2026-04-15 15:07 36.19847 -114.20455 22748 ft 457 kts 79°
2026-04-15 15:07 36.20319 -114.16551 23099 ft 460 kts 79°
2026-04-15 15:07 36.20793 -114.12621 23410 ft 463 kts 79°
2026-04-15 15:07 36.21268 -114.08670 23742 ft 465 kts 79°
2026-04-15 15:08 36.21743 -114.04698 24043 ft 467 kts 79°
2026-04-15 15:08 36.22216 -114.00715 24351 ft 469 kts 79°
2026-04-15 15:08 36.22685 -113.96711 24650 ft 470 kts 79°
2026-04-15 15:08 36.23157 -113.92703 24952 ft 471 kts 79°
2026-04-15 15:09 36.23632 -113.88684 25248 ft 472 kts 79°
2026-04-15 15:09 36.24107 -113.84649 25542 ft 474 kts 79°
2026-04-15 15:09 36.24583 -113.80602 25833 ft 475 kts 79°
2026-04-15 15:09 36.25057 -113.76542 26109 ft 476 kts 79°
2026-04-15 15:10 36.25526 -113.72481 26395 ft 477 kts 79°
2026-04-15 15:10 36.25997 -113.68405 26707 ft 478 kts 79°
2026-04-15 15:10 36.26466 -113.64344 27107 ft 476 kts 79°
2026-04-15 15:10 36.26934 -113.60285 27515 ft 474 kts 79°
2026-04-15 15:11 36.27397 -113.56245 27918 ft 473 kts 79°
2026-04-15 15:11 36.27859 -113.52216 28326 ft 471 kts 79°
2026-04-15 15:11 36.28317 -113.48202 28736 ft 470 kts 79°
2026-04-15 15:11 36.28776 -113.44198 29131 ft 468 kts 79°
2026-04-15 15:12 36.29231 -113.40208 29537 ft 467 kts 79°
2026-04-15 15:12 36.29682 -113.36228 29940 ft 466 kts 79°
2026-04-15 15:12 36.30126 -113.32253 30311 ft 465 kts 79°
2026-04-15 15:12 36.30565 -113.28290 30642 ft 463 kts 79°
2026-04-15 15:13 36.31053 -113.24348 30989 ft 460 kts 75°
2026-04-15 15:13 36.31924 -113.20551 31309 ft 456 kts 66°
2026-04-15 15:13 36.33157 -113.16953 31648 ft 453 kts 63°
2026-04-15 15:13 36.34427 -113.13383 31983 ft 451 kts 63°
2026-04-15 15:14 36.35687 -113.09828 32336 ft 450 kts 64°
2026-04-15 15:14 36.36940 -113.06276 32661 ft 449 kts 64°
2026-04-15 15:14 36.38184 -113.02733 32988 ft 447 kts 64°
2026-04-15 15:14 36.39408 -112.99245 33312 ft 446 kts 64°
2026-04-15 15:15 36.40645 -112.95721 33655 ft 444 kts 64°
2026-04-15 15:15 36.41874 -112.92213 33987 ft 443 kts 64°
2026-04-15 15:15 36.43099 -112.88707 34288 ft 442 kts 64°
2026-04-15 15:15 36.44319 -112.85210 34563 ft 441 kts 64°
2026-04-15 15:16 36.45538 -112.81712 34803 ft 440 kts 64°
2026-04-15 15:16 36.46757 -112.78225 35030 ft 440 kts 64°
2026-04-15 15:16 36.49204 -112.71205 35136 ft 445 kts 64°
2026-04-15 15:17 36.51663 -112.64127 35141 ft 446 kts 64°
2026-04-15 15:17 36.54120 -112.57035 35141 ft 446 kts 64°
2026-04-15 15:18 36.56583 -112.49937 35138 ft 446 kts 64°
2026-04-15 15:18 36.59035 -112.42844 35140 ft 446 kts 64°
2026-04-15 15:19 36.61474 -112.35742 35128 ft 447 kts 64°
2026-04-15 15:19 36.63919 -112.28606 35114 ft 449 kts 64°
2026-04-15 15:20 36.66373 -112.21433 35110 ft 451 kts 64°
2026-04-15 15:20 36.68834 -112.14240 35106 ft 452 kts 64°
2026-04-15 15:21 36.71290 -112.07028 35107 ft 452 kts 64°
2026-04-15 15:21 36.73744 -111.99812 35103 ft 452 kts 64°
2026-04-15 15:22 36.76197 -111.92587 35101 ft 452 kts 64°
2026-04-15 15:22 36.78648 -111.85354 35098 ft 453 kts 64°
2026-04-15 15:23 36.81095 -111.78116 35113 ft 453 kts 64°
2026-04-15 15:23 36.83538 -111.70871 35132 ft 453 kts 64°
2026-04-15 15:24 36.85967 -111.63672 35152 ft 452 kts 63°
2026-04-15 15:24 36.88566 -111.56474 35172 ft 451 kts 62°
2026-04-15 15:25 36.91223 -111.49371 35174 ft 451 kts 62°
2026-04-15 15:25 36.93857 -111.42247 35178 ft 451 kts 62°
2026-04-15 15:26 36.96433 -111.35143 35178 ft 451 kts 63°
2026-04-15 15:26 36.99012 -111.27985 35156 ft 451 kts 62°
2026-04-15 15:27 37.01599 -111.20833 35131 ft 451 kts 62°
2026-04-15 15:27 37.04189 -111.13686 35108 ft 451 kts 62°
2026-04-15 15:28 37.06766 -111.06536 35080 ft 451 kts 62°
2026-04-15 15:28 37.09336 -110.99369 35079 ft 451 kts 63°
2026-04-15 15:29 37.11901 -110.92204 35080 ft 450 kts 63°
2026-04-15 15:29 37.14465 -110.85041 35075 ft 450 kts 63°
2026-04-15 15:30 37.17028 -110.77872 35077 ft 450 kts 63°
2026-04-15 15:30 37.19584 -110.70704 35074 ft 450 kts 63°
2026-04-15 15:31 37.22124 -110.63531 35077 ft 450 kts 63°
2026-04-15 15:31 37.24667 -110.56346 35076 ft 450 kts 63°
2026-04-15 15:32 37.27207 -110.49163 35081 ft 450 kts 63°
2026-04-15 15:32 37.29739 -110.41971 35082 ft 450 kts 63°
2026-04-15 15:33 37.32274 -110.34768 35085 ft 451 kts 63°
2026-04-15 15:33 37.34812 -110.27564 35091 ft 451 kts 63°
2026-04-15 15:34 37.37338 -110.20350 35096 ft 451 kts 63°
2026-04-15 15:34 37.39857 -110.13119 35103 ft 451 kts 63°
2026-04-15 15:35 37.42372 -110.05890 35105 ft 451 kts 63°
2026-04-15 15:35 37.44892 -109.98654 35111 ft 451 kts 63°
2026-04-15 15:36 37.47404 -109.91428 35112 ft 451 kts 63°
2026-04-15 15:36 37.49908 -109.84184 35135 ft 451 kts 63°
2026-04-15 15:37 37.52411 -109.76937 35154 ft 451 kts 63°
2026-04-15 15:37 37.54909 -109.69684 35177 ft 451 kts 63°
2026-04-15 15:38 37.57400 -109.62420 35194 ft 451 kts 63°
2026-04-15 15:38 37.59884 -109.55151 35201 ft 451 kts 63°
2026-04-15 15:39 37.61949 -109.49109 35203 ft 451 kts 63°
2026-04-15 15:39 37.64834 -109.40655 35201 ft 451 kts 63°
2026-04-15 15:40 37.66892 -109.34610 35188 ft 451 kts 63°
2026-04-15 15:40 37.69358 -109.27333 35175 ft 451 kts 63°
2026-04-15 15:41 37.71819 -109.20053 35157 ft 450 kts 63°
2026-04-15 15:41 37.74275 -109.12767 35143 ft 451 kts 63°
2026-04-15 15:42 37.76730 -109.05488 35137 ft 451 kts 63°
2026-04-15 15:42 37.79185 -108.98185 35145 ft 451 kts 63°
2026-04-15 15:43 37.81392 -108.90753 35138 ft 454 kts 71°
2026-04-15 15:43 37.83034 -108.83069 35140 ft 454 kts 71°
2026-04-15 15:44 37.84692 -108.75348 35143 ft 454 kts 71°
2026-04-15 15:44 37.86346 -108.67630 35137 ft 454 kts 71°
2026-04-15 15:45 37.87987 -108.59900 35138 ft 454 kts 71°
2026-04-15 15:45 37.89615 -108.52179 35137 ft 454 kts 71°
2026-04-15 15:46 37.91245 -108.44448 35128 ft 454 kts 71°
2026-04-15 15:46 37.92874 -108.36718 35116 ft 454 kts 71°
2026-04-15 15:47 37.94497 -108.28981 35140 ft 454 kts 71°
2026-04-15 15:47 37.96108 -108.21241 35162 ft 455 kts 71°
2026-04-15 15:48 37.97724 -108.13492 35185 ft 455 kts 71°
2026-04-15 15:48 37.99328 -108.05739 35204 ft 455 kts 71°
2026-04-15 15:49 38.00931 -107.97972 35224 ft 455 kts 71°
2026-04-15 15:49 38.02532 -107.90197 35219 ft 456 kts 71°
2026-04-15 15:50 38.04129 -107.82410 35218 ft 456 kts 71°
2026-04-15 15:50 38.05716 -107.74615 35191 ft 456 kts 71°
2026-04-15 15:51 38.07309 -107.66813 35169 ft 456 kts 71°
2026-04-15 15:51 38.08896 -107.59007 35140 ft 457 kts 71°
2026-04-15 15:52 38.10474 -107.51195 35118 ft 457 kts 71°
2026-04-15 15:52 38.12050 -107.43368 35097 ft 457 kts 72°
2026-04-15 15:53 38.13617 -107.35539 35091 ft 457 kts 72°
2026-04-15 15:53 38.15186 -107.27698 35090 ft 458 kts 72°
2026-04-15 15:54 38.16752 -107.19847 35087 ft 458 kts 72°
2026-04-15 15:54 38.18293 -107.12042 35088 ft 458 kts 72°
2026-04-15 15:55 38.19845 -107.04177 35087 ft 458 kts 72°
2026-04-15 15:55 38.21400 -106.96313 35093 ft 459 kts 72°
2026-04-15 15:56 38.22940 -106.88434 35098 ft 459 kts 72°
2026-04-15 15:56 38.24477 -106.80544 35100 ft 460 kts 72°
2026-04-15 15:57 38.26014 -106.72647 35094 ft 460 kts 72°
2026-04-15 15:57 38.27555 -106.64739 35080 ft 460 kts 72°
2026-04-15 15:58 38.29087 -106.56816 35068 ft 461 kts 73°
2026-04-15 15:58 38.30604 -106.48884 35062 ft 461 kts 73°
2026-04-15 15:59 38.32110 -106.41007 35051 ft 461 kts 73°
2026-04-15 15:59 38.33625 -106.33066 35053 ft 461 kts 73°
2026-04-15 16:00 38.35137 -106.25115 35057 ft 462 kts 73°
2026-04-15 16:00 38.36650 -106.17150 35066 ft 463 kts 73°
2026-04-15 16:01 38.38159 -106.09159 35071 ft 464 kts 72°
2026-04-15 16:01 38.39660 -106.01140 35083 ft 466 kts 73°
2026-04-15 16:02 38.41150 -105.93142 35081 ft 467 kts 73°
2026-04-15 16:02 38.42657 -105.85062 35064 ft 468 kts 74°
2026-04-15 16:03 38.44169 -105.76970 35044 ft 470 kts 74°
2026-04-15 16:03 38.45667 -105.68850 35016 ft 471 kts 74°
2026-04-15 16:04 38.47160 -105.60708 34978 ft 472 kts 75°
2026-04-15 16:04 38.48651 -105.52535 34968 ft 473 kts 75°
2026-04-15 16:05 38.50137 -105.44359 34952 ft 474 kts 75°
2026-04-15 16:05 38.51632 -105.36147 34946 ft 475 kts 75°
2026-04-15 16:06 38.53130 -105.27916 34940 ft 477 kts 75°
2026-04-15 16:06 38.54613 -105.19644 34934 ft 478 kts 76°
2026-04-15 16:07 38.56097 -105.11344 34930 ft 480 kts 76°
2026-04-15 16:08 38.58337 -104.98850 34942 ft 482 kts 76°
2026-04-15 16:08 38.59822 -104.90479 34955 ft 483 kts 76°
2026-04-15 16:09 38.61301 -104.82087 34972 ft 484 kts 76°
2026-04-15 16:09 38.62772 -104.73669 34983 ft 486 kts 77°
2026-04-15 16:10 38.64251 -104.65218 34990 ft 487 kts 77°
2026-04-15 16:10 38.65736 -104.56755 34988 ft 488 kts 77°
2026-04-15 16:11 38.67198 -104.48316 34968 ft 489 kts 77°
2026-04-15 16:11 38.68662 -104.39802 34941 ft 490 kts 77°
2026-04-15 16:12 38.70130 -104.31259 34931 ft 492 kts 78°
2026-04-15 16:12 38.71596 -104.22682 34905 ft 493 kts 78°
2026-04-15 16:13 38.73059 -104.14137 34903 ft 494 kts 78°
2026-04-15 16:13 38.74526 -104.05519 34898 ft 496 kts 78°
2026-04-15 16:14 38.75979 -103.96869 34896 ft 497 kts 78°
2026-04-15 16:14 38.77428 -103.88179 34889 ft 499 kts 79°
2026-04-15 16:15 38.78877 -103.79478 34886 ft 500 kts 79°
2026-04-15 16:15 38.80333 -103.70733 34876 ft 502 kts 79°
2026-04-15 16:16 38.81865 -103.62041 34877 ft 504 kts 73°
2026-04-15 16:16 38.84367 -103.53619 34874 ft 506 kts 69°
2026-04-15 16:17 38.86938 -103.45208 34878 ft 507 kts 69°
2026-04-15 16:17 38.89501 -103.36757 34876 ft 508 kts 70°
2026-04-15 16:18 38.92060 -103.28282 34880 ft 510 kts 70°
2026-04-15 16:18 38.94633 -103.19787 34878 ft 511 kts 70°
2026-04-15 16:19 38.97204 -103.11261 34880 ft 512 kts 70°
2026-04-15 16:19 38.99755 -103.02759 34880 ft 513 kts 70°
2026-04-15 16:20 39.02317 -102.94182 34878 ft 514 kts 70°
2026-04-15 16:20 39.04881 -102.85590 34870 ft 514 kts 70°
2026-04-15 16:21 39.07437 -102.76980 34874 ft 516 kts 70°
2026-04-15 16:21 39.09998 -102.68340 34881 ft 517 kts 71°
2026-04-15 16:22 39.12564 -102.59680 34906 ft 518 kts 71°
2026-04-15 16:22 39.15124 -102.50993 34932 ft 519 kts 71°
2026-04-15 16:23 39.17677 -102.42280 34958 ft 520 kts 71°
2026-04-15 16:23 39.20234 -102.33531 34973 ft 522 kts 71°
2026-04-15 16:24 39.22797 -102.24757 34974 ft 523 kts 71°
2026-04-15 16:24 39.24927 -102.17449 34973 ft 524 kts 71°
2026-04-15 16:25 39.27477 -102.08628 34945 ft 525 kts 72°
2026-04-15 16:25 39.30026 -101.99791 34910 ft 526 kts 72°
2026-04-15 16:26 39.32579 -101.90929 34925 ft 527 kts 72°
2026-04-15 16:26 39.35129 -101.82046 34946 ft 528 kts 72°
2026-04-15 16:27 39.37678 -101.73133 34947 ft 529 kts 72°
2026-04-15 16:27 39.40306 -101.64172 34942 ft 531 kts 70°
2026-04-15 16:28 39.43289 -101.55415 34930 ft 532 kts 67°
2026-04-15 16:28 39.46374 -101.46769 34899 ft 533 kts 67°
2026-04-15 16:29 39.49390 -101.37986 34876 ft 534 kts 69°
2026-04-15 16:29 39.52318 -101.29147 34909 ft 534 kts 69°
2026-04-15 16:30 39.55227 -101.20300 34946 ft 533 kts 69°
2026-04-15 16:30 39.58156 -101.11471 34949 ft 533 kts 68°
2026-04-15 16:31 39.61101 -101.02647 34942 ft 533 kts 68°
2026-04-15 16:31 39.64027 -100.93817 34931 ft 533 kts 69°
2026-04-15 16:32 39.66935 -100.84970 34926 ft 533 kts 69°
2026-04-15 16:32 39.69837 -100.76115 34887 ft 533 kts 69°
2026-04-15 16:33 39.72721 -100.67305 34901 ft 534 kts 69°
2026-04-15 16:33 39.75624 -100.58423 34908 ft 534 kts 69°
2026-04-15 16:34 39.78529 -100.49527 34910 ft 535 kts 69°
2026-04-15 16:34 39.81422 -100.40617 34903 ft 535 kts 69°
2026-04-15 16:35 39.84303 -100.31685 34890 ft 535 kts 69°
2026-04-15 16:35 39.87176 -100.22745 34867 ft 536 kts 70°
2026-04-15 16:36 39.90050 -100.13793 34871 ft 536 kts 70°
2026-04-15 16:36 39.92928 -100.04831 34877 ft 536 kts 70°
2026-04-15 16:37 39.95793 -99.95849 34884 ft 536 kts 70°
2026-04-15 16:37 39.98646 -99.86853 34878 ft 537 kts 70°
2026-04-15 16:38 40.01496 -99.77854 34867 ft 537 kts 70°
2026-04-15 16:38 40.04346 -99.68848 34851 ft 537 kts 70°
2026-04-15 16:39 40.07192 -99.59830 34840 ft 537 kts 70°
2026-04-15 16:39 40.10027 -99.50798 34829 ft 538 kts 70°
2026-04-15 16:40 40.12861 -99.41750 34834 ft 538 kts 70°
2026-04-15 16:40 40.15688 -99.32694 34837 ft 538 kts 70°
2026-04-15 16:41 40.18503 -99.23624 34842 ft 538 kts 70°
2026-04-15 16:41 40.21311 -99.14539 34833 ft 539 kts 70°
2026-04-15 16:42 40.24123 -99.05448 34832 ft 539 kts 70°
2026-04-15 16:42 40.26931 -98.96349 34821 ft 539 kts 71°
2026-04-15 16:43 40.29727 -98.87241 34818 ft 539 kts 71°
2026-04-15 16:43 40.32512 -98.78121 34812 ft 539 kts 71°
2026-04-15 16:44 40.35297 -98.68985 34830 ft 539 kts 71°
2026-04-15 16:44 40.38073 -98.59858 34833 ft 539 kts 71°
2026-04-15 16:45 40.40836 -98.50713 34842 ft 539 kts 71°
2026-04-15 16:45 40.43584 -98.41560 34841 ft 539 kts 71°
2026-04-15 16:46 40.46337 -98.32396 34844 ft 539 kts 71°
2026-04-15 16:46 40.49085 -98.23240 34838 ft 539 kts 71°
2026-04-15 16:47 40.51824 -98.14067 34833 ft 539 kts 71°
2026-04-15 16:47 40.54554 -98.04898 34818 ft 539 kts 71°
2026-04-15 16:48 40.57275 -97.95723 34815 ft 538 kts 71°
2026-04-15 16:48 40.59976 -97.86535 34809 ft 538 kts 71°
2026-04-15 16:49 40.62661 -97.77405 34810 ft 538 kts 71°
2026-04-15 16:49 40.65363 -97.68218 34804 ft 538 kts 71°
2026-04-15 16:50 40.68055 -97.59017 34809 ft 538 kts 71°
2026-04-15 16:50 40.70731 -97.49809 34809 ft 538 kts 71°
2026-04-15 16:51 40.73400 -97.40598 34806 ft 538 kts 71°
2026-04-15 16:51 40.76068 -97.31380 34800 ft 538 kts 71°
2026-04-15 16:52 40.78727 -97.22152 34797 ft 538 kts 71°
2026-04-15 16:52 40.81376 -97.12916 34792 ft 538 kts 71°
2026-04-15 16:53 40.84020 -97.03663 34801 ft 538 kts 71°
2026-04-15 16:53 40.86663 -96.94409 34799 ft 538 kts 71°
2026-04-15 16:54 40.89291 -96.85151 34803 ft 538 kts 71°
2026-04-15 16:54 40.91890 -96.75883 34807 ft 537 kts 74°
2026-04-15 16:55 40.93492 -96.66291 34796 ft 534 kts 83°
2026-04-15 16:55 40.94825 -96.56630 34791 ft 534 kts 82°
2026-04-15 16:56 40.96164 -96.46964 34787 ft 534 kts 83°
2026-04-15 16:56 40.97476 -96.37280 34773 ft 534 kts 83°
2026-04-15 16:57 40.98774 -96.27591 34775 ft 534 kts 83°
2026-04-15 16:57 41.00079 -96.17900 34773 ft 534 kts 82°
2026-04-15 16:58 41.01380 -96.08213 34773 ft 535 kts 82°
2026-04-15 16:58 41.02671 -95.98522 34780 ft 535 kts 82°
2026-04-15 16:59 41.03951 -95.88818 34759 ft 535 kts 82°
2026-04-15 16:59 41.05217 -95.79109 34761 ft 535 kts 82°
2026-04-15 17:00 41.06485 -95.69397 34758 ft 535 kts 82°
2026-04-15 17:00 41.07755 -95.59683 34767 ft 535 kts 82°
2026-04-15 17:01 41.09007 -95.49960 34761 ft 535 kts 82°
2026-04-15 17:01 41.10240 -95.40227 34762 ft 535 kts 82°
2026-04-15 17:02 41.11471 -95.30485 34776 ft 536 kts 82°
2026-04-15 17:02 41.12703 -95.20741 34780 ft 535 kts 82°
2026-04-15 17:03 41.13922 -95.10997 34777 ft 535 kts 82°
2026-04-15 17:03 41.14926 -95.02898 34785 ft 535 kts 83°
2026-04-15 17:04 41.16123 -94.93148 34775 ft 535 kts 83°
2026-04-15 17:04 41.17311 -94.83400 34780 ft 535 kts 83°
2026-04-15 17:05 41.18493 -94.73657 34784 ft 535 kts 83°
2026-04-15 17:05 41.19681 -94.63902 34789 ft 535 kts 83°
2026-04-15 17:06 41.20856 -94.54149 34796 ft 535 kts 83°
2026-04-15 17:06 41.22015 -94.44386 34796 ft 535 kts 83°
2026-04-15 17:07 41.23164 -94.34637 34797 ft 534 kts 83°
2026-04-15 17:07 41.24292 -94.24883 34800 ft 534 kts 83°
2026-04-15 17:08 41.25425 -94.15125 34798 ft 534 kts 83°
2026-04-15 17:08 41.26561 -94.05377 34804 ft 534 kts 83°
2026-04-15 17:09 41.27677 -93.95615 34805 ft 534 kts 84°
2026-04-15 17:09 41.28788 -93.85856 34811 ft 534 kts 84°
2026-04-15 17:10 41.29889 -93.76097 34813 ft 534 kts 84°
2026-04-15 17:10 41.30977 -93.66337 34817 ft 533 kts 84°
2026-04-15 17:11 41.32056 -93.56571 34818 ft 533 kts 84°
2026-04-15 17:11 41.33131 -93.46807 34817 ft 533 kts 84°
2026-04-15 17:12 41.34727 -93.32171 34842 ft 532 kts 84°
2026-04-15 17:12 41.35777 -93.22447 34841 ft 530 kts 84°
2026-04-15 17:13 41.36296 -93.17599 34610 ft 528 kts 84°
2026-04-15 17:13 41.36811 -93.12771 34367 ft 527 kts 84°
2026-04-15 17:13 41.37326 -93.07938 34131 ft 526 kts 84°
2026-04-15 17:13 41.37836 -93.03119 33911 ft 526 kts 85°
2026-04-15 17:14 41.38343 -92.98284 33647 ft 526 kts 85°
2026-04-15 17:14 41.38851 -92.93457 33381 ft 527 kts 85°
2026-04-15 17:14 41.39358 -92.88611 32995 ft 527 kts 85°
2026-04-15 17:14 41.39863 -92.83742 31682 ft 538 kts 85°
2026-04-15 17:15 41.40379 -92.78752 30693 ft 542 kts 84°
2026-04-15 17:15 41.40896 -92.73767 29584 ft 547 kts 85°
2026-04-15 17:15 41.41412 -92.68754 28603 ft 546 kts 85°
2026-04-15 17:15 41.41917 -92.63808 27592 ft 545 kts 85°
2026-04-15 17:16 41.42426 -92.58794 26535 ft 545 kts 85°
2026-04-15 17:16 41.42928 -92.53831 24943 ft 539 kts 85°
2026-04-15 17:16 41.43428 -92.48869 23111 ft 540 kts 85°
2026-04-15 17:16 41.43927 -92.43969 21794 ft 526 kts 85°
2026-04-15 17:17 41.44412 -92.39213 20736 ft 510 kts 85°
2026-04-15 17:17 41.44876 -92.34630 19978 ft 489 kts 85°
2026-04-15 17:17 41.45316 -92.30210 19161 ft 473 kts 85°
2026-04-15 17:17 41.45738 -92.25914 18385 ft 464 kts 85°
2026-04-15 17:18 41.46150 -92.21670 17567 ft 459 kts 85°
2026-04-15 17:18 41.46556 -92.17476 16835 ft 453 kts 85°
2026-04-15 17:18 41.46954 -92.13333 16123 ft 448 kts 85°
2026-04-15 17:18 41.47342 -92.09294 15453 ft 443 kts 85°
2026-04-15 17:19 41.47733 -92.05248 14790 ft 437 kts 85°
2026-04-15 17:19 41.48121 -92.01261 14268 ft 426 kts 85°
2026-04-15 17:19 41.48495 -91.97466 14106 ft 399 kts 85°
2026-04-15 17:19 41.48846 -91.93923 13991 ft 373 kts 85°
2026-04-15 17:20 41.49171 -91.90595 13846 ft 352 kts 86°
2026-04-15 17:20 41.49474 -91.87409 13431 ft 342 kts 86°
2026-04-15 17:20 41.49764 -91.84279 12873 ft 338 kts 86°
2026-04-15 17:20 41.50047 -91.81185 12310 ft 335 kts 86°
2026-04-15 17:21 41.50327 -91.78120 11734 ft 332 kts 86°
2026-04-15 17:21 41.50608 -91.75082 11204 ft 328 kts 86°
2026-04-15 17:21 41.50893 -91.72068 11036 ft 328 kts 86°
2026-04-15 17:21 41.51178 -91.69079 10895 ft 317 kts 86°
2026-04-15 17:22 41.51601 -91.66280 10743 ft 302 kts 74°
2026-04-15 17:22 41.52419 -91.63739 10396 ft 297 kts 60°
2026-04-15 17:22 41.53617 -91.61507 10119 ft 295 kts 46°
2026-04-15 17:22 41.55123 -91.59674 9864 ft 292 kts 33°
2026-04-15 17:23 41.56857 -91.58304 9571 ft 287 kts 21°
2026-04-15 17:23 41.58670 -91.57208 9080 ft 285 kts 20°
2026-04-15 17:23 41.60470 -91.56115 8622 ft 283 kts 21°
2026-04-15 17:23 41.62228 -91.55042 8345 ft 273 kts 21°
2026-04-15 17:24 41.63938 -91.53998 7945 ft 268 kts 21°
2026-04-15 17:24 41.65632 -91.52965 7535 ft 267 kts 21°
2026-04-15 17:24 41.67314 -91.51944 7134 ft 265 kts 21°
2026-04-15 17:24 41.68987 -91.50932 6710 ft 263 kts 21°
2026-04-15 17:25 41.70653 -91.49918 6299 ft 262 kts 22°
2026-04-15 17:25 41.72302 -91.48909 5904 ft 259 kts 21°
2026-04-15 17:25 41.73933 -91.47911 5492 ft 257 kts 22°
2026-04-15 17:25 41.75551 -91.46922 5099 ft 254 kts 22°
2026-04-15 17:26 41.77153 -91.45943 4850 ft 252 kts 22°
2026-04-15 17:26 41.78752 -91.44981 4715 ft 251 kts 19°
2026-04-15 17:26 41.80428 -91.44391 4592 ft 248 kts
2026-04-15 17:26 41.82138 -91.44287 4462 ft 245 kts 357°
2026-04-15 17:27 41.83836 -91.44250 4317 ft 244 kts 358°
2026-04-15 17:27 41.85529 -91.44225 4194 ft 241 kts 353°
2026-04-15 17:27 41.87063 -91.44873 3970 ft 227 kts 318°
2026-04-15 17:27 41.87990 -91.46487 3682 ft 216 kts 283°
2026-04-15 17:28 41.88159 -91.48436 3479 ft 209 kts 266°
2026-04-15 17:28 41.88176 -91.50361 3357 ft 203 kts 267°
2026-04-15 17:28 41.88200 -91.52233 3233 ft 198 kts 267°
2026-04-15 17:28 41.88226 -91.54053 3135 ft 190 kts 265°
2026-04-15 17:29 41.88252 -91.55774 2977 ft 182 kts 266°
2026-04-15 17:29 41.88276 -91.57453 2749 ft 178 kts 266°
2026-04-15 17:29 41.88298 -91.59093 2523 ft 175 kts 266°
2026-04-15 17:29 41.88319 -91.60672 2296 ft 163 kts 265°
2026-04-15 17:30 41.88340 -91.62121 2094 ft 147 kts 263°
2026-04-15 17:30 41.88355 -91.63521 1878 ft 153 kts 264°
2026-04-15 17:30 41.88372 -91.64938 1664 ft 150 kts 266°
2026-04-15 17:30 41.88388 -91.66370 1444 ft 153 kts 265°
2026-04-15 17:31 41.88405 -91.67799 1240 ft 157 kts 266°
2026-04-15 17:31 41.88423 -91.69299 1029 ft 161 kts 269°
2026-04-15 17:31 41.88440 -91.70768 868 ft 142 kts 270°
2026-04-15 17:31 41.88452 -91.71778 853 ft 84 kts 270°
2026-04-15 17:32 41.88463 -91.72362 865 ft 42 kts 284°
2026-04-15 17:32 41.88594 -91.72488 853 ft 11 kts 26°
2026-04-15 17:32 41.88604 -91.72458 848 ft 3 kts 93°
2026-04-15 17:32 41.88596 -91.72273 865 ft 34 kts 92°
2026-04-15 17:33 41.88593 -91.71969 866 ft 31 kts 90°
2026-04-15 17:33 41.88593 -91.71686 867 ft 29 kts 89°
2026-04-15 17:33 41.88587 -91.71420 868 ft 28 kts 90°
2026-04-15 17:33 41.88587 -91.71275 868 ft 0 kts 89°